SV2BBO-2 Thessaloniki GR current weather conditions

sailwx.info

Wind from 076

Air temperature 15.0° C
Dewpoint -0.3° C

Last reported at 2015-Feb-28 18:47 UTC.
Time now 2015-Feb-28 19:18 UTC

Location: N 40°38' E 022°57'.
View on Google Maps.

See reports from other nearby stations

  
Tides and Currents Weather Stations Pressure Air Temp Water Temp Dewpoint Dewpoint Depression Visibility Wind Speed Wind Dir Waves Ship Positions
date/time (UTC)wind fromknots sea level pressurealtimeterstation pressurevisibilityair tempwater tempwave heightnotes
2015-Feb-28 18:47 076 15.0
2015-Feb-28 18:37 076 2 gusting 2 15.0
2015-Feb-28 18:27 076 15.0
2015-Feb-28 18:17 077 15.0
2015-Feb-28 18:07 085 2 gusting 3 15.0
2015-Feb-28 17:57 104 15.0
2015-Feb-28 17:47 090 0 15.0
2015-Feb-28 17:37 101 1 gusting 2 15.0
2015-Feb-28 17:27 132 15.0
2015-Feb-28 17:17 101 2 gusting 2 15.0
2015-Feb-28 17:07 082 2 gusting 3 15.6
2015-Feb-28 16:57 082 2 gusting 3 15.6
2015-Feb-28 16:47 083 2 gusting 2 15.6
2015-Feb-28 16:37 134 2 gusting 4 16.1
2015-Feb-28 16:27 165 3 gusting 3 16.1
2015-Feb-28 16:17 221 2 gusting 3 16.1
2015-Feb-28 16:07 125 3 gusting 5 16.1
2015-Feb-28 15:57 145 3 gusting 4 16.1
2015-Feb-28 15:47 120 3 gusting 3 16.1
2015-Feb-28 15:37 103 3 gusting 3 16.7
2015-Feb-28 15:27 159 1 gusting 4 16.7
2015-Feb-28 15:17 179 2 gusting 3 16.1
2015-Feb-28 15:07 197 4 gusting 4 16.7
2015-Feb-28 14:57 143 16.7
2015-Feb-28 14:47 178 4 gusting 5 17.2
2015-Feb-28 14:37 131 3 gusting 6 17.2
2015-Feb-28 14:27 183 2 gusting 4 17.2
2015-Feb-28 14:17 145 3 gusting 4 17.8
2015-Feb-28 14:07 157 3 gusting 6 17.8
2015-Feb-28 13:57 143 3 gusting 5 17.2
2015-Feb-28 13:47 179 2 gusting 4 17.8
2015-Feb-28 13:37 150 3 gusting 3 17.8
2015-Feb-28 13:27 180 3 gusting 5 17.8
2015-Feb-28 13:17 166 3 gusting 3 17.8
2015-Feb-28 13:07 170 3 gusting 3 17.2
2015-Feb-28 12:57 160 2 gusting 5 17.8
2015-Feb-28 12:47 130 2 gusting 3 17.2
2015-Feb-28 12:37 091 2 gusting 3 17.2
2015-Feb-28 12:27 153 3 gusting 2 16.7
2015-Feb-28 12:17 182 0 gusting 5 16.7
2015-Feb-28 12:07 202 3 gusting 4 16.1
2015-Feb-28 11:57 202 6 gusting 6 16.1
2015-Feb-28 11:47 191 3 gusting 6 16.7
2015-Feb-28 11:37 231 4 gusting 5 16.7
2015-Feb-28 11:27 182 3 gusting 4 16.7
2015-Feb-28 11:17 185 2 gusting 3 16.7
2015-Feb-28 11:07 187 3 gusting 3 16.7
2015-Feb-28 10:57 217 3 gusting 5 16.7
2015-Feb-28 10:47 211 0 16.7
2015-Feb-28 10:37 232 2 gusting 3 16.1
2015-Feb-28 10:27 278 2 gusting 4 16.1
2015-Feb-28 10:17 217 2 gusting 3 15.6
2015-Feb-28 10:07 255 2 gusting 3 15.6
2015-Feb-28 09:57 218 3 gusting 5 15.6
2015-Feb-28 09:47 270 3 gusting 5 15.6
2015-Feb-28 09:37 273 2 gusting 3 15.6
2015-Feb-28 09:27 232 3 gusting 5 15.6
2015-Feb-28 09:17 237 2 gusting 3 15.6
2015-Feb-28 09:07 253 2 gusting 4 15.0
2015-Feb-28 08:57 265 0 gusting 2 14.4
2015-Feb-28 08:47 289 14.4
2015-Feb-28 08:37 234 0 gusting 3 13.9
2015-Feb-28 08:27 232 2 gusting 2 13.9
2015-Feb-28 08:17 254 1 gusting 4 13.9
2015-Feb-28 08:07 217 13.9
2015-Feb-28 07:57 202 13.9
2015-Feb-28 07:47 202 13.3
2015-Feb-28 07:37 210 0 gusting 3 13.3
2015-Feb-28 07:27 153 13.3
2015-Feb-28 07:17 153 13.3
2015-Feb-28 07:07 146 12.8
2015-Feb-28 06:57 030 12.8
2015-Feb-28 06:47 357 12.8
2015-Feb-28 05:47 070 12.2
2015-Feb-28 05:37 070 12.2
2015-Feb-28 05:27 070 12.2
2015-Feb-28 05:17 271 12.2
2015-Feb-28 05:07 272 12.2
2015-Feb-28 04:57 062 12.2
2015-Feb-28 04:47 062 12.2
2015-Feb-28 04:37 053 12.2
2015-Feb-28 04:27 050 12.8
2015-Feb-28 04:17 050 12.8
2015-Feb-28 04:07 050 12.8
2015-Feb-28 03:57 050 12.8
2015-Feb-28 03:47 051 13.3
2015-Feb-28 03:37 050 13.3
2015-Feb-28 03:27 050 13.3
2015-Feb-28 03:17 051 13.3
2015-Feb-28 03:07 050 12.8
2015-Feb-28 02:57 050 13.3
2015-Feb-28 02:47 052 13.3
2015-Feb-28 02:43 052 13.3
2015-Feb-28 02:33 160 13.3
2015-Feb-28 02:23 121 13.3
2015-Feb-28 02:13 148 13.3
2015-Feb-28 02:03 091 13.3
2015-Feb-28 01:53 353 13.3
2015-Feb-28 01:43 325 13.3
2015-Feb-28 01:33 326 12.8
2015-Feb-28 01:23 095 13.3
2015-Feb-28 01:13 095 13.3
2015-Feb-28 01:03 031 13.3
2015-Feb-28 00:53 031 13.3
2015-Feb-28 00:43 031 12.8
2015-Feb-28 00:33 031 12.8
2015-Feb-28 00:23 116 12.8
2015-Feb-28 00:13 116 12.8
2015-Feb-28 00:03 116 12.8
2015-Feb-27 23:53 095 12.8
2015-Feb-27 23:43 080 12.8
2015-Feb-27 23:33 051 12.8
2015-Feb-27 23:23 043 13.3
2015-Feb-27 23:13 019 12.8
2015-Feb-27 23:03 020 12.8
2015-Feb-27 22:53 018 12.8
2015-Feb-27 22:43 045 13.3
2015-Feb-27 22:33 041 12.8
2015-Feb-27 22:23 329 12.8
2015-Feb-27 22:13 315 12.8
2015-Feb-27 22:03 302 12.8
2015-Feb-27 21:53 294 12.8
2015-Feb-27 21:43 326 12.8
2015-Feb-27 21:33 332 12.8
2015-Feb-27 21:23 251 12.8
2015-Feb-27 21:13 254 13.3
2015-Feb-27 21:03 298 13.3
2015-Feb-27 20:53 297 13.3
2015-Feb-27 20:43 286 13.3
2015-Feb-27 20:33 291 13.3
2015-Feb-27 20:23 291 13.3
2015-Feb-27 20:13 316 13.3
2015-Feb-27 20:03 296 13.3
2015-Feb-27 19:53 353 3 gusting 3 13.3
2015-Feb-27 19:43 358 1 gusting 4 13.3
2015-Feb-27 19:33 324 2 gusting 5 13.3
2015-Feb-27 19:23 306 4 gusting 3 13.3
2015-Feb-27 19:13 297 3 gusting 4 13.3
2015-Feb-27 19:03 333 5 gusting 6 13.3
2015-Feb-27 18:53 324 2 gusting 3 13.3
2015-Feb-27 18:43 020 3 gusting 5 13.3
2015-Feb-27 18:33 032 3 gusting 3 13.3
2015-Feb-27 18:23 340 4 gusting 6 13.3
2015-Feb-27 18:13 011 4 gusting 5 13.3
2015-Feb-27 18:03 348 4 gusting 5 13.3
2015-Feb-27 17:53 325 2 gusting 6 13.3
2015-Feb-27 17:43 292 2 gusting 3 13.3
2015-Feb-27 17:33 309 0 gusting 2 13.3
2015-Feb-27 17:23 293 2 gusting 5 13.3
2015-Feb-27 17:13 304 2 gusting 2 13.3
2015-Feb-27 17:03 353 4 gusting 5 13.3
2015-Feb-27 16:53 13.3
2015-Feb-27 16:43 038 4 gusting 6 13.3
2015-Feb-27 16:33 016 4 gusting 5 13.3
2015-Feb-27 16:23 004 5 gusting 6 13.3
2015-Feb-27 16:13 001 4 gusting 4 13.3
2015-Feb-27 16:03 13.3
2015-Feb-27 15:53 311 2 gusting 3 13.3
2015-Feb-27 15:43 354 5 gusting 5 13.3
2015-Feb-27 15:33 356 5 gusting 6 13.3
2015-Feb-27 15:23 345 3 gusting 3 13.3
2015-Feb-27 15:13 063 5 gusting 5 13.3
2015-Feb-27 15:03 046 5 gusting 5 13.3
2015-Feb-27 14:53 052 6 gusting 9 13.3
2015-Feb-27 14:43 029 2 gusting 3 14.4
2015-Feb-27 14:33 022 14.4
2015-Feb-27 14:23 125 14.4
2015-Feb-27 14:13 109 3 gusting 3 14.4
2015-Feb-27 14:03 269 13.9
2015-Feb-27 13:53 162 0 gusting 3 13.9
2015-Feb-27 13:43 113 2 gusting 5 13.3
2015-Feb-27 13:33 086 4 gusting 6 13.9
2015-Feb-27 13:23 065 5 gusting 6 13.9
2015-Feb-27 13:13 064 5 gusting 5 15.0
2015-Feb-27 13:03 087 3 gusting 4 15.0
2015-Feb-27 12:53 108 3 gusting 4 14.4
2015-Feb-27 12:43 063 5 gusting 7 13.9
2015-Feb-27 12:33 108 4 gusting 6 13.9
2015-Feb-27 12:23 100 6 gusting 11 14.4
2015-Feb-27 12:13 094 6 gusting 6 14.4
2015-Feb-27 12:03 162 4 gusting 5 13.9
2015-Feb-27 11:53 038 6 gusting 9 13.9
2015-Feb-27 11:43 077 7 gusting 10 13.9
2015-Feb-27 11:33 068 6 gusting 13 13.9
2015-Feb-27 11:23 075 6 gusting 13 13.9
2015-Feb-27 11:13 058 5 gusting 12 13.3
2015-Feb-27 11:03 023 6 gusting 12 13.3
2015-Feb-27 10:53 067 6 gusting 8 13.3
2015-Feb-27 10:43 111 9 gusting 15 13.3
2015-Feb-27 10:33 050 6 gusting 9 13.9
2015-Feb-27 10:23 047 6 gusting 16 13.3
2015-Feb-27 10:13 054 6 gusting 14 13.3
2015-Feb-27 10:03 002 6 gusting 12 13.3
2015-Feb-27 09:53 083 7 gusting 6 12.8
2015-Feb-27 09:43 095 6 gusting 12 12.8
2015-Feb-27 09:33 050 10 gusting 13 13.3
2015-Feb-27 09:23 107 6 gusting 11 13.3
2015-Feb-27 09:17 080 5 gusting 12 13.3
2015-Feb-27 09:07 097 6 gusting 13 12.8
2015-Feb-27 08:57 074 10 gusting 13 12.8
2015-Feb-27 08:47 078 7 gusting 13 12.8
2015-Feb-27 08:37 055 6 gusting 12 12.8
2015-Feb-27 08:27 066 7 gusting 15 12.8
2015-Feb-27 08:17 036 11 gusting 15 12.8
2015-Feb-27 08:07 091 6 gusting 10 12.8
2015-Feb-27 07:57 101 4 gusting 6 12.8
2015-Feb-27 07:47 086 5 gusting 12 12.8
2015-Feb-27 07:37 075 10 gusting 11 12.8
2015-Feb-27 07:27 043 6 gusting 7 12.8
2015-Feb-27 07:17 052 6 gusting 13 12.2
2015-Feb-27 07:07 129 9 gusting 11 12.2
2015-Feb-27 06:57 062 7 gusting 12 12.2
2015-Feb-27 06:47 072 7 gusting 12 12.8
2015-Feb-27 06:37 089 7 gusting 13 12.8
2015-Feb-27 06:27 160 3 gusting 3 13.3
2015-Feb-27 06:17 149 3 gusting 4 13.3
2015-Feb-27 06:07 121 5 gusting 6 12.8
2015-Feb-27 05:57 074 4 gusting 6 12.8
2015-Feb-27 05:47 059 4 gusting 8 11.7
2015-Feb-27 05:37 165 11.7
2015-Feb-27 05:27 213 1 gusting 2 11.7
2015-Feb-27 05:17 189 11.7
2015-Feb-27 05:07 219 11.7
2015-Feb-27 04:57 271 0 gusting 2 11.7
2015-Feb-27 04:47 292 2 gusting 4 11.7
2015-Feb-27 04:37 320 11.7
2015-Feb-27 04:27 231 0 gusting 3 11.7
2015-Feb-27 04:17 230 2 gusting 3 11.7
2015-Feb-27 04:07 170 2 gusting 2 12.2
2015-Feb-27 03:57 202 11.7
2015-Feb-27 03:47 206 11.7
2015-Feb-27 03:37 225 11.7
2015-Feb-27 03:27 188 1 gusting 3 11.7
2015-Feb-27 03:17 259 11.7
2015-Feb-27 03:07 261 11.7
2015-Feb-27 02:57 244 11.7
2015-Feb-27 02:47 235 5 gusting 6 11.7
2015-Feb-27 02:37 230 3 gusting 4 11.7
2015-Feb-27 02:27 256 11.7
2015-Feb-27 02:17 228 11.7
2015-Feb-27 02:07 228 11.7
2015-Feb-27 01:57 222 2 gusting 3 11.7
2015-Feb-27 01:47 235 2 gusting 3 12.2
2015-Feb-27 01:37 104 12.2
2015-Feb-27 01:27 063 0 12.2
2015-Feb-27 01:17 060 12.2
2015-Feb-27 01:07 061 12.2
2015-Feb-27 00:57 061 12.2
2015-Feb-27 00:47 045 12.2
2015-Feb-27 00:37 042 12.2
2015-Feb-27 00:27 047 3 gusting 4 12.2
2015-Feb-27 00:17 068 12.2
2015-Feb-27 00:07 078 2 gusting 3 12.2
2015-Feb-26 23:57 069 0 gusting 2 12.2
2015-Feb-26 23:47 101 12.2
2015-Feb-26 23:37 065 2 gusting 4 12.2
2015-Feb-26 23:27 088 3 gusting 4 12.2
2015-Feb-26 23:17 068 12.8
2015-Feb-26 23:07 068 12.2
2015-Feb-26 22:57 068 12.2
2015-Feb-26 22:47 068 12.8
2015-Feb-26 22:37 109 12.8
2015-Feb-26 22:27 084 2 gusting 3 12.2
2015-Feb-26 22:17 018 2 gusting 2 12.2
2015-Feb-26 22:07 076 12.2
2015-Feb-26 21:57 013 1 12.2
2015-Feb-26 21:47 357 2 gusting 3 12.8
2015-Feb-26 21:37 002 1 gusting 3 12.2
2015-Feb-26 21:27 061 2 gusting 3 12.2
2015-Feb-26 21:17 002 12.8
2015-Feb-26 21:07 357 12.8
2015-Feb-26 20:57 345 3 gusting 3 12.8
2015-Feb-26 20:47 333 1 gusting 3 12.8
2015-Feb-26 20:37 102 12.8
2015-Feb-26 20:27 103 13.3
2015-Feb-26 20:17 316 13.3
2015-Feb-26 20:07 316 13.3
2015-Feb-26 19:57 316 13.3
2015-Feb-26 19:47 316 13.3
2015-Feb-26 19:37 055 13.3
2015-Feb-26 19:27 055 12.8
2015-Feb-26 19:17 058 3 gusting 4 12.8
2015-Feb-26 19:07 057 2 gusting 3 12.8